[[{"header":{"parameterUnit":"m.s-1","parameterCategory":1,"la1":30.2991,"la2":30.254,"lo1":-89.0895,"lo2":-89.0444,"dy":0.0017,"dx":0.0017,"nx":28,"ny":28,"refTime":"2025-08-17T09:00:00:Z","depth":0,"parameterNumber":2,"parameterNumberName":"U-component_of_WINDS"},"data":[0,0,0,0,0,0,0,0,0,0,0,0,0,0,0,0,0,0,0,0,0,0,0,0,0,0,0,0,0,0,0,0,0,0,0,0,0,0,0,0,0,0,0,0,0,0,0,0,0,0,0,0,0,0,0,0,0,0,0.189,0.1891,0,0.1894,0.1894,0.1894,0.1859,0.1858,0.1857,0.1856,0.1863,0.1864,0.1865,0,0,0,0,0,0,0,0,0,0,0,0,0,0.1857,0.1858,0.189,0.1891,0.1891,0.1894,0.1894,0.1894,0.1859,0.1858,0.1857,0.1856,0.1862,0.1864,0.1865,0,0,0,0,0,0,0,0,0,0,0,0,0,0.1867,0.1858,0.189,0.1874,0.1872,0.1894,0.1894,0.1894,0.1859,0.1858,0.1856,0.1855,0.1862,0.1863,0.1865,0.1904,0,0,0.187,0.1871,0,0,0,0,0,0,0,0,0.1866,0.1868,0.1876,0.1875,0.1873,0.1874,0.1884,0.1897,0.186,0.1864,0.1856,0.1854,0.1868,0.1869,0.1873,0.1904,0.1904,0.187,0.1871,0.1872,0.1872,0,0,0,0,0,0,0,0.1866,0.1868,0.1892,0.1876,0.1874,0.1867,0.1866,0.1886,0.1874,0.1864,0.1861,0.1862,0.1867,0.1871,0.1873,0.1905,0.187,0.1871,0.1872,0.1873,0.1966,0.1967,0,0,0,0,0,0,0.1867,0.1868,0.1892,0.1892,0.1866,0.1868,0.1868,0.1875,0.1874,0.1872,0.1863,0.186,0.1869,0.1871,0.1873,0.1916,0.1872,0.1873,0.1874,0.1964,0.1966,0.1968,0,0,0,0,0,0,0.1866,0.1869,0.1892,0.1879,0.1881,0.187,0.1879,0.1876,0.1881,0.1873,0.1871,0.187,0.1868,0.1871,0.1896,0.1916,0.1874,0.1875,0.1963,0.1965,0.1967,0.2005,0,0,0,0,0,0,0.1866,0.1869,0.1884,0.188,0.1882,0.1914,0.188,0.1877,0.1883,0.1879,0.1879,0.1878,0.1867,0.1893,0.1897,0.1918,0.1877,0.1961,0.1964,0.1966,0.2002,0.2009,0.2014,0,0,0,0,0,0.1864,0.1896,0.1885,0.1888,0.1899,0.1915,0.1917,0.1903,0.1885,0.1899,0.1894,0.1878,0.1914,0.1896,0.19,0.1922,0.1959,0.1963,0.1966,0.1999,0.2007,0.2014,0,0,0,0,0,0,0.1904,0.1895,0.1882,0.1913,0.1915,0.1909,0.1927,0.1912,0.192,0.1917,0.19,0.1901,0.1928,0.1928,0.1909,0.1958,0.1933,0.1938,0.1957,0.1965,0.1971,0.197,0.1878,0,0,0,0,0,0.1916,0.1929,0.192,0.1948,0.195,0.1938,0.1945,0.1934,0.1936,0.1937,0.1934,0.1937,0.1948,0.1957,0.1967,0.2002,0.2001,0.2019,0.2025,0.203,0.2033,0.205,0.2057,0.1979,0.1979,0.1979,0,0,0.1942,0.1938,0.1947,0.1956,0.1956,0.197,0.1939,0.1956,0.1966,0.194,0.1962,0.196,0.1963,0.1992,0.2005,0.1992,0.2055,0.2034,0.2038,0.2039,0.2054,0.2061,0.2068,0.1981,0.1981,0.198,0,0,0.1995,0.1994,0.2016,0.2016,0.2016,0.2008,0.2013,0.201,0.2007,0.2029,0.2009,0.2021,0.2042,0.2044,0.2048,0.21,0.2084,0.2104,0.2135,0.2151,0.2158,0.2163,0.218,0.2187,0.2108,0.2108,0.2108,0,0.2027,0.2046,0.2029,0.2046,0.205,0.2025,0.2047,0.2049,0.2053,0.2057,0.2042,0.2067,0.2067,0.2096,0.2108,0.2113,0.2118,0.2104,0.2158,0.2163,0.2168,0.2184,0.2191,0.211,0.211,0.211,0.211,0,0.2084,0.2098,0.2116,0.2118,0.2124,0.2144,0.2131,0.2139,0.2128,0.2121,0.2144,0.2143,0.2152,0.2158,0.2148,0.2185,0.2177,0.2161,0.2135,0.2178,0.2193,0.2199,0.2114,0.2113,0.2112,0.2112,0,0,0.2163,0.2155,0.2161,0.2161,0.2159,0.2169,0.2188,0.2195,0.2202,0.2206,0.222,0.2238,0.2222,0.2226,0.2216,0.223,0.227,0.2212,0.2212,0.2222,0.2309,0.232,0.2328,0.2259,0.2261,0.2261,0.2308,0,0.2213,0.2242,0.2228,0.2259,0.2271,0.2247,0.2263,0.2263,0.2257,0.2267,0.2261,0.2273,0.2252,0.2254,0.2267,0.2262,0.2287,0.2259,0.2272,0.2273,0.2271,0.2336,0.2348,0.2392,0.2314,0.2315,0.2316,0,0.2276,0.228,0.2312,0.2306,0.231,0.2324,0.2329,0.2339,0.2338,0.2333,0.2337,0.2323,0.234,0.2315,0.2339,0.232,0.2325,0.2323,0.2324,0.2324,0.2296,0.2336,0.2406,0.2412,0.2325,0.2324,0.2324,0,0.2328,0.2342,0.2362,0.2363,0.2357,0.2367,0.2365,0.2363,0.2368,0.2373,0.2375,0.2383,0.2386,0.2392,0.238,0.2363,0.2405,0.238,0.2401,0.2401,0.241,0.2409,0.248,0.2415,0.2415,0.2415,0.2415,0,0.2385,0.2405,0.2385,0.2398,0.2419,0.2402,0.2425,0.242,0.2419,0.243,0.2411,0.2422,0.2406,0.2415,0.2406,0.2426,0.2429,0.2425,0.2422,0.2426,0.2426,0.2428,0.2424,0.2417,0.2416,0.2416,0.2416,0,0.2447,0.2434,0.2454,0.2446,0.2444,0.2461,0.2454,0.2465,0.2457,0.2472,0.2475,0.2463,0.2473,0.2462,0.2472,0.2465,0.2492,0.2485,0.2491,0.2489,0.251,0.2508,0.2584,0.2592,0.2523,0.2524,0.2525,0,0.2483,0.2498,0.2491,0.2496,0.2495,0.2504,0.2508,0.2492,0.2497,0.2497,0.2509,0.2517,0.2522,0.254,0.2532,0.2539,0.2532,0.2558,0.2533,0.2536,0.2531,0.2529,0.253,0.2563,0.2564,0.2565,0.2565,0,0.2549,0.2542,0.2548,0.2552,0.2557,0.2559,0.2561,0.2567,0.255,0.2557,0.2566,0.257,0.2579,0.2587,0.2591,0.259,0.2575,0.2573,0.2578,0.2582,0.2584,0.2581,0.2504,0.2571,0.2571,0.257,0.257,0.257,0.2599,0.261,0.2606,0.2613,0.2612,0.2613,0.2622,0.2615,0.2622,0.2627,0.2618,0.2629,0.2627,0.2632,0.2632,0.264,0.2629,0.2637,0.2639,0.264,0.2643,0.2583,0.2641,0.2641,0.2641,0.2641,0.2641,0,0.2662,0.2658,0.2665,0.2666,0.2671,0.2655,0.2655,0.2661,0.2671,0.267,0.2676,0.2686,0.2693,0.2686,0.2692,0.27,0.2693,0.2702,0.2701,0.27,0.2653,0.2648,0.2707,0.2707,0.2707,0.2707,0.2707,0.2707,0.2696,0.2713,0.2705,0.2722,0.2717,0.2727,0.2729,0.2729,0.2728,0.274,0.2745,0.274,0.2737,0.2742,0.2748,0.2745,0.2748,0.2759,0.2754,0.271,0.2704,0.2698,0.2692,0.276,0.276,0.28,0.28,0.2801]},{"header":{"parameterUnit":"m.s-1","parameterCategory":1,"la1":30.2991,"la2":30.254,"lo1":-89.0895,"lo2":-89.0444,"dy":0.0017,"dx":0.0017,"nx":28,"ny":28,"refTime":"2025-08-17T09:00:00:Z","depth":0,"parameterNumber":3,"parameterNumberName":"V-component_of_WINDS"},"data":[0,0,0,0,0,0,0,0,0,0,0,0,0,0,0,0,0,0,0,0,0,0,0,0,0,0,0,0,0,0,0,0,0,0,0,0,0,0,0,0,0,0,0,0,0,0,0,0,0,0,0,0,0,0,0,0,0,0,2.3327,2.3329,0,2.3519,2.3522,2.3524,2.363,2.363,2.363,2.3631,2.3821,2.3825,2.383,0,0,0,0,0,0,0,0,0,0,0,0,0,2.304,2.3045,2.3327,2.3329,2.3332,2.3519,2.3522,2.3524,2.363,2.363,2.363,2.3631,2.3819,2.3825,2.383,0,0,0,0,0,0,0,0,0,0,0,0,0,2.3191,2.3046,2.3326,2.3407,2.3416,2.3518,2.3522,2.3525,2.363,2.363,2.363,2.3631,2.3817,2.3824,2.3831,2.3866,0,0,2.3853,2.3856,0,0,0,0,0,0,0,0,2.3183,2.3202,2.3393,2.3402,2.3412,2.3551,2.349,2.3639,2.3629,2.3548,2.3631,2.3631,2.373,2.3744,2.3779,2.3875,2.3883,2.3854,2.3858,2.3861,2.3863,0,0,0,0,0,0,0,2.3172,2.3194,2.3403,2.3395,2.3407,2.343,2.3452,2.3519,2.3634,2.3555,2.3564,2.3585,2.3735,2.3772,2.3785,2.3886,2.3854,2.386,2.3864,2.3867,2.4013,2.4013,0,0,0,0,0,0,2.315,2.3185,2.3397,2.3409,2.3296,2.3435,2.3459,2.3506,2.3634,2.3654,2.3585,2.3589,2.376,2.3776,2.3792,2.3838,2.3861,2.3868,2.3872,2.4014,2.4013,2.4013,0,0,0,0,0,0,2.3143,2.3168,2.3389,2.3299,2.3329,2.3439,2.3491,2.3509,2.3547,2.3656,2.3676,2.3602,2.3761,2.3782,2.3846,2.3846,2.3871,2.3878,2.4014,2.4013,2.4013,2.3932,0,0,0,0,0,0,2.3135,2.3165,2.3183,2.3299,2.3333,2.3443,2.3491,2.3513,2.3559,2.3568,2.3677,2.3696,2.3763,2.3835,2.3853,2.3856,2.3883,2.4015,2.4014,2.4013,2.3935,2.3928,2.3923,0,0,0,0,0,2.3124,2.3152,2.3183,2.3208,2.3358,2.3443,2.3463,2.3541,2.3559,2.3575,2.3644,2.3692,2.3842,2.384,2.3862,2.3867,2.4015,2.4014,2.4013,2.3938,2.393,2.3923,0,0,0,0,0,0,2.3032,2.3169,2.3205,2.3272,2.3345,2.3461,2.3485,2.3531,2.36,2.3604,2.3696,2.372,2.3774,2.3827,2.3822,2.3904,2.3933,2.3937,2.3868,2.3862,2.3856,2.3842,2.3889,0,0,0,0,0,2.302,2.3081,2.3195,2.3243,2.3278,2.3374,2.3415,2.3468,2.3547,2.3578,2.3653,2.3725,2.3788,2.3828,2.3892,2.3942,2.3965,2.3956,2.3949,2.3944,2.3946,2.3971,2.3967,2.401,2.401,2.401,0,0,2.2995,2.3077,2.311,2.3226,2.329,2.3347,2.34,2.346,2.3501,2.3587,2.3652,2.3708,2.3794,2.385,2.3878,2.3896,2.3938,2.3943,2.3938,2.3943,2.3969,2.3965,2.3962,2.4009,2.4009,2.4009,0,0,2.2979,2.3048,2.3094,2.3155,2.325,2.3313,2.3322,2.3431,2.3471,2.3538,2.3602,2.3651,2.3759,2.3816,2.386,2.3857,2.3902,2.3875,2.3844,2.3867,2.3863,2.3861,2.3857,2.3854,2.3876,2.3876,2.3876,0,2.2935,2.3027,2.311,2.3165,2.3212,2.3291,2.3335,2.339,2.3499,2.3528,2.3546,2.368,2.3744,2.3812,2.3811,2.3844,2.3855,2.3864,2.3858,2.3856,2.3855,2.3852,2.385,2.3872,2.3872,2.3873,2.3873,0,2.2967,2.3029,2.3053,2.3158,2.3207,2.3256,2.3342,2.3382,2.3428,2.3487,2.3551,2.3629,2.3709,2.3729,2.3776,2.3802,2.3809,2.3841,2.3872,2.3845,2.3844,2.3843,2.3866,2.3868,2.3869,2.387,0,0,2.2904,2.3049,2.3057,2.3103,2.321,2.3257,2.3306,2.3385,2.3415,2.3486,2.3526,2.3613,2.3641,2.369,2.3743,2.3764,2.3751,2.3793,2.3796,2.378,2.3779,2.3754,2.3752,2.3781,2.3781,2.3781,2.3771,0,2.2902,2.2998,2.307,2.3136,2.3191,2.3263,2.3305,2.3372,2.3427,2.3479,2.3538,2.3597,2.3632,2.3661,2.3684,2.3748,2.3752,2.375,2.3816,2.3818,2.3792,2.3752,2.3727,2.3714,2.3772,2.3772,2.3772,0,2.2915,2.2982,2.3054,2.315,2.3175,2.3212,2.3287,2.3336,2.3411,2.3449,2.35,2.3554,2.3604,2.3628,2.3695,2.3692,2.3722,2.3757,2.3758,2.3767,2.3793,2.3758,2.3713,2.371,2.3772,2.3772,2.3772,0,2.2858,2.2967,2.3023,2.306,2.3174,2.3197,2.3245,2.3321,2.3361,2.3424,2.3451,2.3518,2.3555,2.3604,2.3672,2.3685,2.3731,2.3762,2.376,2.3758,2.3768,2.3766,2.3725,2.3788,2.3788,2.3788,2.3789,0,2.2849,2.2889,2.2998,2.3033,2.3077,2.3157,2.3198,2.3252,2.3317,2.336,2.3425,2.3462,2.3551,2.3598,2.3651,2.3696,2.3712,2.3741,2.3755,2.3735,2.3731,2.3757,2.3759,2.3788,2.3788,2.3788,2.3788,0,2.2795,2.287,2.2935,2.3036,2.3061,2.309,2.3174,2.3207,2.3263,2.3315,2.3332,2.3419,2.3476,2.3549,2.363,2.3665,2.3703,2.3725,2.3678,2.3686,2.3679,2.3678,2.3652,2.3651,2.3716,2.3715,2.3714,0,2.2785,2.2817,2.2919,2.2953,2.2999,2.3052,2.3093,2.317,2.3209,2.3293,2.3314,2.3377,2.3432,2.3519,2.3587,2.3647,2.367,2.3656,2.368,2.3657,2.3667,2.3664,2.3665,2.3651,2.365,2.3649,2.3648,0,2.2757,2.2791,2.2848,2.2916,2.2963,2.302,2.308,2.3103,2.3191,2.323,2.329,2.3332,2.3412,2.3472,2.354,2.3585,2.3629,2.364,2.3642,2.3623,2.3593,2.3606,2.3661,2.3641,2.3641,2.3642,2.3642,2.3643,2.2724,2.2754,2.2829,2.2889,2.2941,2.2993,2.3028,2.3087,2.3139,2.3211,2.3252,2.3309,2.3376,2.3472,2.3514,2.3557,2.3574,2.3578,2.3579,2.3579,2.3571,2.3586,2.357,2.357,2.357,2.3571,2.3571,0,2.2698,2.2748,2.2802,2.2883,2.2927,2.2965,2.3031,2.3066,2.3116,2.3175,2.3226,2.3291,2.3347,2.3417,2.3477,2.3497,2.3518,2.351,2.3509,2.3517,2.3554,2.3545,2.3491,2.3491,2.3491,2.3491,2.3491,2.3491,2.269,2.2741,2.2782,2.2857,2.2907,2.2964,2.2997,2.3044,2.3092,2.3161,2.3208,2.3254,2.3316,2.3379,2.343,2.3449,2.3467,2.3451,2.3476,2.3509,2.3516,2.3522,2.3514,2.3455,2.3455,2.3436,2.3436,2.3435]}]]